Regional Weather Roundup
Issued by NWS

Home | Current Version | Previous Version | Text Only | Print | Product List | Glossary On
Versions: 1 2 3 4 5 6 7 8 9 10 11 12 13 14 15 16 17 18 19 20 21 22 23 24 25 26 27 28 29 30 31 32 33 34 35 36 37 38 39 40 41 42 43 44 45 46 47 48 49 50
704
ASUS45 KSLC 290110
RWRUT

UTAH REGIONAL WEATHER ROUNDUP
NATIONAL WEATHER SERVICE SALT LAKE CITY UT
700 PM MDT TUE MAR 28 2017

UTZ001>011-023>025-290200-

NORTHERN UTAH

CITY           SKY/WX    TMP DP  RH WIND       PRES   REMARKS
BRIGHAM CITY     N/A     52  27  37 NW16      30.16F
HILL AFB       CLEAR     50  26  38 NW16      30.15R
LOGAN          PTCLDY    52  29  41 N13       30.16R
OGDEN          CLEAR     50  28  42 N13       30.14S
SALT LAKE CITY   N/A     53  31  42 NW18      30.15S
TOOELE VALLEY  CLEAR     50  32  50 N12       30.18S
WENDOVER       CLEAR     54  21  27 NE10      30.19R
HEBER CITY     PTCLDY    48  25  40 NW9       30.11R
WEST JORDAN    CLEAR     52  39  60 NW15G22   30.17R

$$

UTZ011>015-024>027-290200-

CENTRAL/NORTHEAST UTAH

CITY           SKY/WX    TMP DP  RH WIND       PRES   REMARKS
PROVO AIRPORT  PTCLDY    50  32  50 NW23G30   30.14R
MOAB/CANYONLAN MOCLDY    55  33  43 NE17      29.95R
DELTA          CLEAR     46  30  53 NW18G24   30.16S
PRICE          PTCLDY    49  25  39 NW16G22   30.04R
RICHFIELD      MOCLDY    46  28  49 NW8G20    30.17R
ROOSEVELT      CLEAR     52  36  54 SW10      30.06R
VERNAL         CLEAR     49  29  46 NE12G21   30.06R

$$

UTZ013>016-019>022-027-290200-

SOUTHERN UTAH

CITY           SKY/WX    TMP DP  RH WIND       PRES   REMARKS
BRYCE CANYON   PTCLDY    41  19  41 N17G30    30.10R
CEDAR CITY     MOCLDY    44  28  53 N17G24    30.14R
MILFORD        PTCLDY    49  29  46 N24       30.15R
ST GEORGE      PTCLDY    62  25  24 NE23G31   30.02R
HANKSVILLE     MOCLDY    59  25  27 NW13G24   29.98R
KANAB          CLEAR     52  23  32 N26G36    30.06R
BLANDING       MOCLDY    46  32  58 NW14G24   29.98R

$$

REGIONAL REPORTS     COLORADO/ARIZONA

CITY           SKY/WX    TMP DP  RH WIND       PRES   REMARKS
CRAIG, CO      CLOUDY    44  31  60 N16       30.00R
GRAND JUNCTION CLOUDY    51  40  65 NW8       29.95R
RIFLE, CO      CLOUDY    48  35  60 NW15      29.95R
MONTROSE, CO   CLOUDY    46  37  71 NW17G25   29.92R
CORTEZ, CO     CLOUDY    48  36  63 N14G21    29.87R
COLORADO CITY    N/A     55  25  30 NW21G29   30.07R
PAGE, AZ       PTCLDY    62  25  24 N6        29.91R
GRAND CANYON   CLEAR     50  18  28 NW9G20    30.00R
KINGMAN, AZ    SUNNY     63   1   8 NW18      29.99R
FLAGSTAFF, AZ  PTCLDY    47  24  40 N5        29.99R

$$

REGIONAL REPORTS    NEVADA/IDAHO/WYOMING

CITY           SKY/WX    TMP DP  RH WIND       PRES   REMARKS
LAS VEGAS, NV  MOSUNNY   72  10   9 NW13G20   29.98S
ELY, NY        MOSUNNY   48  22  35 N13       30.19R
ELKO, NV       SUNNY     51  23  33 NW12      30.24R
POCATELLO, ID  PTCLDY    48  28  46 W10       30.19S
BURLEY, ID     MOCLDY    48  24  39 W12G23    30.20S
EVANSTON, WY   CLEAR     40  22  48 N18       30.14S WCI  31
ROCK SPRINGS,  LGT RAIN  38  32  79 CALM      30.13R
KEMMERER, WY     N/A     37  25  60 W16G23    30.13R WCI  28

$$




USA.gov is the U.S. government's official web portal to all federal, state and local government web resources and services.